Weather History for KDRM - March, 2013

Change the Weather History Date:

Monday, March 18, 2013

  Actual Average (KCIU) Record (KCIU)
Temperature  
Mean Temperature 22 °F -  
Max Temperature 33 °F 33 °F 77 °F (2012)
Min Temperature 10 °F 9 °F -16 °F (1993)
Degree Days  
Heating Degree Days 44    
Moisture  
Dew Point 16 °F    
Average Humidity 79    
Maximum Humidity 97    
Minimum Humidity 53    
Precipitation  
Precipitation 0.00 in - - ()
Sea Level Pressure  
Sea Level Pressure 29.92 in    
Wind  
Wind Speed 7 mph (East)    
Max Wind Speed 20 mph    
Max Gust Speed 33 mph    
Visibility 8 miles    
Events Snow    
Averages and records for this station are not official NWS values.
T = Trace of Precipitation, MM = Missing Value Source: NWS Daily Summary

Daily Weather History Graph

Daily Weather History Graph

Search for Another Location

Airport or City:

Trip Planner

Search our weather history database for the weather conditions in past years. The results will help you decide how hot, cold, wet, or windy it might be!

Date:

Astronomy

Mar. 18, 2013 Rise Set
Actual Time 7:41 AM EDT 7:45 PM EDT
Civil Twilight 7:11 AM EDT 8:15 PM EDT
Nautical Twilight 6:36 AM EDT 8:50 PM EDT
Astronomical Twilight 6:01 AM EDT 9:25 PM EDT
Moon 11:21 AM EDT (3/18) 2:01 AM EDT (3/18)
Length of Visible Light 13h 03m
Length of Day
12h 03m
Waxing Crescent, 40% of the Moon is Illuminated
Mar 18
Waxing Crescent
Mar 19
First Quarter
Mar 27
Full
Apr 3
Last Quarter
Apr 10
New

Hourly Weather History & Observations

Time (EDT) Temp. Windchill Dew Point Humidity Pressure Visibility Wind Dir Wind Speed Gust Speed Precip Events Conditions
12:17 AM 13.5 °F 5.8 °F 5.5 °F 71% 30.23 in 10.0 mi ESE 4.6 mph - N/A   Clear
12:36 AM 11.8 °F 5.7 °F 4.6 °F 73% 30.23 in 10.0 mi SE 3.5 mph - N/A   Clear
12:56 AM 10.9 °F 4.7 °F 4.1 °F 74% 30.22 in 10.0 mi ESE 3.5 mph - N/A   Clear
1:17 AM 11.7 °F - 5.0 °F 75% 30.22 in 10.0 mi Calm Calm - N/A   Clear
1:36 AM 11.1 °F - 4.6 °F 75% 30.21 in 10.0 mi Calm Calm - N/A   Clear
1:56 AM 12.7 °F - 6.3 °F 75% 30.21 in 10.0 mi Calm Calm - N/A   Clear
2:16 AM 11.1 °F - 4.5 °F 75% 30.21 in 10.0 mi Calm Calm - N/A   Clear
2:36 AM 11.1 °F 4.9 °F 5.4 °F 78% 30.21 in 10.0 mi ENE 3.5 mph - N/A   Clear
2:56 AM 11.5 °F - 5.5 °F 77% 30.21 in 10.0 mi Calm Calm - N/A   Clear
3:16 AM 11.7 °F 5.5 °F 6.8 °F 81% 30.20 in 10.0 mi ENE 3.5 mph - N/A   Clear
3:37 AM 10.9 °F 2.9 °F 7.3 °F 85% 30.20 in 10.0 mi East 4.6 mph - N/A   Clear
3:56 AM 10.9 °F 1.4 °F 7.7 °F 87% 30.19 in 10.0 mi ENE 5.8 mph - N/A   Clear
4:16 AM 10.9 °F 2.9 °F 7.7 °F 87% 30.18 in 10.0 mi East 4.6 mph - N/A   Clear
4:36 AM 10.4 °F -1.5 °F 7.3 °F 87% 30.18 in 10.0 mi East 8.1 mph - N/A   Clear
4:56 AM 10.4 °F -0.4 °F 7.3 °F 87% 30.16 in 10.0 mi ENE 6.9 mph - N/A   Clear
5:17 AM 10.4 °F -0.4 °F 7.5 °F 88% 30.15 in 10.0 mi East 6.9 mph - N/A   Clear
5:36 AM 10.4 °F 4.0 °F 7.7 °F 89% 30.15 in 10.0 mi ENE 3.5 mph - N/A   Clear
5:56 AM 10.8 °F 0.0 °F 7.7 °F 87% 30.14 in 10.0 mi East 6.9 mph - N/A   Scattered Clouds
6:17 AM 10.9 °F 1.4 °F 8.4 °F 90% 30.14 in 10.0 mi East 5.8 mph - N/A   Clear
6:36 AM 11.5 °F 3.5 °F 9.1 °F 90% 30.13 in 10.0 mi East 4.6 mph - N/A   Clear
6:57 AM 12.6 °F 4.8 °F 10.4 °F 91% 30.13 in 10.0 mi East 4.6 mph - N/A   Scattered Clouds
7:16 AM 13.1 °F 5.4 °F 10.4 °F 89% 30.13 in 10.0 mi East 4.6 mph - N/A   Mostly Cloudy
7:37 AM 14.0 °F 5.1 °F 11.1 °F 88% 30.12 in 10.0 mi East 5.8 mph - N/A   Mostly Cloudy
7:56 AM 14.5 °F 5.7 °F 11.1 °F 86% 30.11 in 10.0 mi East 5.8 mph - N/A   Overcast
8:16 AM 14.9 °F 5.0 °F 11.1 °F 85% 30.10 in 10.0 mi East 6.9 mph - N/A   Overcast
8:37 AM 15.6 °F 7.0 °F 11.3 °F 83% 30.09 in 10.0 mi East 5.8 mph - N/A   Mostly Cloudy
8:56 AM 15.4 °F 3.8 °F 10.8 °F 82% 30.08 in 10.0 mi East 9.2 mph - N/A   Mostly Cloudy
9:17 AM 15.6 °F 4.0 °F 10.8 °F 81% 30.07 in 10.0 mi East 9.2 mph - N/A   Scattered Clouds
9:37 AM 16.2 °F 6.5 °F 11.1 °F 81% 30.06 in 10.0 mi ENE 6.9 mph - N/A   Mostly Cloudy
9:56 AM 17.6 °F 10.7 °F 12.0 °F 79% 30.05 in 10.0 mi East 4.6 mph - N/A   Scattered Clouds
10:17 AM 18.5 °F 8.4 °F 12.7 °F 78% 30.03 in 10.0 mi ENE 8.1 mph - N/A   Scattered Clouds
10:36 AM 19.4 °F 9.5 °F 13.3 °F 77% 30.02 in 10.0 mi East 8.1 mph - N/A   Clear
10:56 AM 20.5 °F 10.8 °F 14.0 °F 76% 30.00 in 10.0 mi ENE 8.1 mph - N/A   Clear
11:17 AM 22.1 °F 12.8 °F 14.7 °F 73% 29.99 in 10.0 mi East 8.1 mph - N/A   Clear
11:36 AM 23.9 °F 16.8 °F 15.4 °F 70% 29.98 in 10.0 mi East 5.8 mph - N/A   Clear
11:56 AM 24.8 °F 16.9 °F 15.8 °F 69% 29.97 in 10.0 mi ENE 6.9 mph - N/A   Clear
12:17 PM 25.2 °F 13.9 °F 16.7 °F 70% 29.94 in 10.0 mi East 12.7 mph 20.7 mph N/A   Clear
12:36 PM 26.2 °F 18.6 °F 17.2 °F 69% 29.93 in 10.0 mi East 6.9 mph 18.4 mph N/A   Clear
12:56 PM 26.6 °F 20.0 °F 17.2 °F 68% 29.93 in 10.0 mi East 5.8 mph - N/A   Clear
1:16 PM 27.9 °F 17.8 °F 18.1 °F 67% 29.91 in 10.0 mi East 11.5 mph 17.3 mph N/A   Clear
1:36 PM 28.2 °F 16.3 °F 19.0 °F 68% 29.88 in 10.0 mi ENE 16.1 mph 21.9 mph N/A   Clear
1:57 PM 28.8 °F 18.4 °F 19.4 °F 68% 29.86 in 10.0 mi ENE 12.7 mph 21.9 mph N/A   Clear
2:16 PM 30.2 °F 20.8 °F 20.3 °F 67% 29.83 in 10.0 mi East 11.5 mph 21.9 mph N/A   Clear
2:37 PM 30.4 °F 22.9 °F 21.6 °F 70% 29.82 in 10.0 mi East 8.1 mph 20.7 mph N/A   Clear
2:57 PM 30.2 °F 20.8 °F 21.9 °F 71% 29.81 in 10.0 mi ENE 11.5 mph 21.9 mph N/A   Clear
3:16 PM 32.0 °F 25.6 °F 22.5 °F 68% 29.80 in 10.0 mi East 6.9 mph 20.7 mph N/A   Clear
3:37 PM 33.4 °F 22.3 °F 18.0 °F 53% 29.78 in 10.0 mi ESE 18.4 mph 28.8 mph N/A   Clear
3:57 PM 32.4 °F 20.6 °F 17.8 °F 55% 29.76 in 10.0 mi ESE 19.6 mph 33.4 mph N/A   Mostly Cloudy
4:16 PM 32.0 °F 20.1 °F 17.6 °F 55% 29.74 in 10.0 mi East 19.6 mph 29.9 mph N/A   Overcast
4:37 PM 32.0 °F 20.8 °F 18.0 °F 56% 29.73 in 10.0 mi ESE 17.3 mph 31.1 mph N/A   Overcast
4:56 PM 31.5 °F 22.9 °F 18.7 °F 59% 29.71 in 10.0 mi ESE 10.4 mph 26.5 mph N/A   Overcast
5:16 PM 31.6 °F 20.7 °F 19.0 °F 60% 29.71 in 10.0 mi ESE 16.1 mph 21.9 mph N/A   Overcast
5:37 PM 31.8 °F 20.6 °F 19.0 °F 59% 29.70 in 10.0 mi ESE 17.3 mph 25.3 mph N/A   Overcast
5:56 PM 31.6 °F 21.2 °F 19.2 °F 60% 29.68 in 10.0 mi ESE 15.0 mph 23.0 mph N/A   Overcast
6:16 PM 31.6 °F 19.7 °F 19.8 °F 62% 29.67 in 10.0 mi ESE 19.6 mph 28.8 mph N/A   Overcast
6:37 PM 31.1 °F 22.4 °F 21.0 °F 66% 29.67 in 5.0 mi ESE 10.4 mph 21.9 mph N/A Snow Light Snow
6:56 PM 28.9 °F 17.3 °F 25.0 °F 85% 29.66 in 1.0 mi ESE 16.1 mph 26.5 mph N/A Snow Light Snow
7:16 PM 28.8 °F 17.5 °F 25.9 °F 89% 29.66 in 0.8 mi ESE 15.0 mph 21.9 mph N/A Snow Light Snow
7:37 PM 28.2 °F 19.5 °F 27.0 °F 95% 29.65 in 0.5 mi ESE 9.2 mph 20.7 mph N/A Snow Snow
7:56 PM 27.9 °F 14.7 °F 27.0 °F 96% 29.65 in 0.2 mi ESE 19.6 mph 27.6 mph N/A Snow Snow
8:17 PM 27.9 °F 16.3 °F 27.1 °F 97% 29.64 in 0.8 mi ESE 15.0 mph 23.0 mph N/A Snow Snow
8:37 PM 28.0 °F 16.5 °F 26.8 °F 95% 29.63 in 1.0 mi ESE 15.0 mph 31.1 mph N/A Snow Snow
8:56 PM 27.9 °F 16.3 °F 27.0 °F 96% 29.62 in 1.2 mi ESE 15.0 mph 23.0 mph N/A Snow Light Snow
9:17 PM 28.0 °F 15.7 °F 27.0 °F 96% 29.61 in 1.5 mi ESE 17.3 mph 24.2 mph N/A Snow Light Snow
9:36 PM 27.9 °F 17.8 °F 27.0 °F 96% 29.59 in 1.0 mi ESE 11.5 mph 23.0 mph N/A Snow Snow
9:56 PM 28.0 °F 17.5 °F 27.1 °F 96% 29.58 in 1.2 mi ESE 12.7 mph 21.9 mph N/A Snow Light Snow
10:17 PM 28.2 °F 17.7 °F 27.3 °F 96% 29.56 in 1.8 mi ESE 12.7 mph 19.6 mph N/A Snow Light Snow
10:36 PM 28.2 °F 15.5 °F 27.3 °F 96% 29.55 in 1.2 mi SE 18.4 mph 28.8 mph N/A Snow Light Snow
10:56 PM 28.4 °F 18.0 °F 27.3 °F 96% 29.54 in 1.8 mi ESE 12.7 mph 23.0 mph N/A Snow Light Snow
11:16 PM 28.4 °F 17.5 °F 26.6 °F 93% 29.53 in 4.0 mi ESE 13.8 mph 19.6 mph N/A Snow Light Snow
11:57 PM 28.6 °F 18.7 °F 27.5 °F 96% 29.51 in 1.8 mi ESE 11.5 mph 17.3 mph N/A Snow Light Snow